Time[GMT],air_temperature[C](-3m),wind_speed[m/s](-4m),wind_gust[m/s](-4m),visibility[m](-3m),barometric_pressure[millibars](-3m),wind_2_direction[degrees_true](-4m),wind_2_gust[m/s](-4m),wind_2_gust_1s[m/s](-4m),wind_2_min[m/s](-4m),wind_2_percent_good[1](-4m),wind_2_speed[m/s](-4m),wind_direction[degrees_true](-4m),wind_gust_1s[m/s](-4m),wind_min[m/s](-4m)
2020-11-08 00:00,12.8,,,2995,1022.66,267.60,5.36,6.23,2.68,1.00,4.64,,,
2020-11-08 01:00,12.6,,,2995,1022.17,248.30,4.17,5.07,1.69,1.00,3.35,,,
2020-11-08 02:00,12.6,,,2995,1022.79,264.00,4.10,4.70,1.18,1.00,3.18,,,
2020-11-08 03:00,12.5,,,2995,1022.79,229.50,3.30,4.36,0.55,1.00,2.42,,,
2020-11-08 04:00,12.4,,,2995,1022.79,220.10,4.29,5.01,1.37,1.00,3.16,,,
2020-11-08 05:00,12.5,,,2995,1022.66,220.20,3.53,4.11,1.66,1.00,2.89,,,
2020-11-08 06:00,12.5,,,2995,1022.42,228.40,3.35,4.15,1.69,1.00,2.90,,,
2020-11-08 07:00,12.4,,,2995,1022.54,204.10,2.83,3.83,1.12,1.00,2.41,,,
2020-11-08 08:00,12.4,,,2995,1022.54,221.30,3.65,4.40,1.88,1.00,3.12,,,
2020-11-08 09:00,12.4,,,2995,1023.15,293.70,1.11,1.89,0.02,1.00,0.67,,,
2020-11-08 10:00,12.2,,,2995,1023.40,63.20,1.82,2.68,0.08,1.00,1.07,,,
2020-11-08 11:00,12.0,,,2995,1024.26,56.81,1.34,2.07,0.05,1.00,0.79,,,
2020-11-08 12:00,12.3,,,2995,1025.48,74.10,1.42,2.23,0.12,1.00,1.05,,,
2020-11-08 13:00,12.2,,,2995,1026.10,10.40,2.85,3.83,1.17,1.00,2.28,,,
2020-11-08 14:00,12.2,,,2995,1026.46,47.35,5.44,5.92,2.84,1.00,4.47,,,
2020-11-08 15:00,12.2,,,2995,1026.71,63.70,5.13,5.88,2.58,1.00,4.24,,,
2020-11-08 16:00,10.8,,, 680,1026.83,54.35,7.18,8.27,3.91,1.00,5.95,,,
2020-11-08 17:00,10.9,,,2804,1026.59,51.78,6.71,7.58,2.68,1.00,5.44,,,
2020-11-08 18:00,11.8,,,2995,1026.59,66.70,7.74,8.43,3.51,1.00,6.33,,,
2020-11-08 19:00,12.5,,,2995,1026.95,62.17,7.45,8.49,3.64,1.00,6.12,,,
2020-11-08 20:00,12.8,,,2995,1027.45,74.00,6.89,7.81,2.77,1.00,5.72,,,
2020-11-08 21:00,12.3,,,2995,1027.94,75.20,7.41,8.60,2.31,1.00,5.71,,,
2020-11-08 22:00,12.3,,,2995,1028.43,78.00,6.11,7.21,2.13,1.00,4.49,,,
2020-11-08 23:00,12.2,,,2995,1028.43,79.00,7.20,7.97,1.96,1.00,5.20,,,
2020-11-09 00:00,12.1,,,2995,1028.43,84.70,6.73,8.08,2.77,1.00,5.48,,,
2020-11-09 01:00,12.2,,,2995,1028.55,103.70,6.33,7.17,2.13,1.00,4.94,,,
2020-11-09 02:00,12.2,,,2995,1028.92,114.20,5.34,6.30,1.24,1.00,3.79,,,
2020-11-09 03:00,12.2,,,2995,1029.04,91.50,2.10,3.21,0.02,1.00,1.47,,,
2020-11-09 04:00,12.1,,,2995,1028.80,77.40,1.63,2.81,0.03,1.00,1.06,,,
2020-11-09 05:00,11.9,,,2995,1028.67,53.83,2.20,3.29,0.21,1.00,1.58,,,
2020-11-09 06:00,12.4,,,2995,1028.30,184.90,2.79,3.50,0.31,1.00,1.67,,,
2020-11-09 07:00,12.6,,,2995,1027.81,196.70,3.44,4.07,1.48,1.00,2.79,,,
2020-11-09 08:00,12.6,,,2995,1027.20,201.90,1.10,1.73,0.05,1.00,0.78,,,
2020-11-09 09:00,12.2,,,2995,1027.45,293.20,1.16,1.70,0.09,1.00,0.85,,,
2020-11-09 10:00,12.4,,,2995,1027.45,313.00,1.20,1.67,0.01,1.00,0.59,,,
2020-11-09 11:00,12.3,,, 530,1027.81,231.80,2.24,3.17,0.59,1.00,1.75,,,
2020-11-09 12:00,11.8,,, 500,1028.30,215.70,2.94,3.70,1.18,1.00,2.33,,,
2020-11-09 13:00,11.5,,, 436,1028.18,208.50,4.15,4.97,2.13,1.00,3.45,,,
2020-11-09 14:00,10.7,,, 728,1027.94,235.70,4.10,5.13,1.27,1.00,3.04,,,
2020-11-09 15:00,10.5,,, 642,1027.94,238.20,3.19,4.02,0.72,1.00,2.26,,,
2020-11-09 16:00,10.5,,,1232,1026.71,206.80,2.70,3.57,0.74,1.00,1.92,,,
2020-11-09 17:00,11.4,,,2995,1025.97,190.90,3.39,4.27,1.62,1.00,2.80,,,
2020-11-09 18:00,11.9,,,2995,1025.36,190.70,3.63,3.95,1.58,1.00,2.72,,,
2020-11-09 19:00,12.2,,,2995,1024.75,198.90,4.78,5.22,3.07,1.00,4.23,,,
2020-11-09 20:00,12.9,,,2995,1024.50,212.30,7.05,7.62,4.16,1.00,5.58,,,
2020-11-09 21:00,12.9,,,2956,1024.50,221.30,5.55,6.34,2.84,1.00,4.67,,,
2020-11-09 22:00,12.6,,,2995,1024.75,228.60,4.40,5.35,1.59,1.00,3.73,,,
2020-11-09 23:00,12.3,,,2995,1024.75,218.60,4.58,5.45,2.38,1.00,3.82,,,
2020-11-10 00:00,12.0,,,2995,1024.75,231.30,4.45,5.54,1.89,1.00,3.85,,,
2020-11-10 01:00,12.5,,,2995,1024.38,231.30,5.93,7.03,3.00,1.00,5.18,,,
2020-11-10 02:00,12.5,,,2995,1024.13,237.60,5.60,6.96,2.71,1.00,4.79,,,
2020-11-10 03:00,12.4,,,2995,1024.13,256.80,5.03,6.10,2.19,1.00,4.40,,,
2020-11-10 04:00,11.7,,,2995,1024.26,290.00,7.41,8.26,4.02,1.00,6.08,,,
2020-11-10 05:00,10.5,,,1090,1023.89,265.80,5.46,6.72,1.79,1.00,4.17,,,
2020-11-10 06:00,9.9,,, 796,1023.64,262.10,4.51,5.60,0.91,1.00,3.26,,,
2020-11-10 07:00,9.9,,,1183,1023.28,269.40,5.54,6.05,1.21,1.00,3.64,,,
2020-11-10 08:00,9.6,,,1458,1023.28,255.00,3.81,4.70,0.99,1.00,2.64,,,
2020-11-10 09:00,9.8,,,1683,1023.52,260.10,4.21,5.20,1.05,1.00,2.75,,,
2020-11-10 10:00,9.9,,,1254,1023.40,243.30,3.81,4.38,1.29,1.00,2.81,,,
2020-11-10 11:00,9.8,,,1039,1023.52,233.20,4.49,5.31,1.74,1.00,3.48,,,
2020-11-10 12:00,10.1,,,1272,1023.64,223.90,5.86,7.03,1.80,1.00,4.65,,,
2020-11-10 13:00,10.2,,, 723,1023.77,224.30,5.52,6.46,1.98,1.00,4.53,,,
2020-11-10 14:00,10.7,,, 759,1023.52,210.00,5.73,6.65,2.65,1.00,4.78,,,
2020-11-10 15:00,11.9,,,2995,1023.28,198.60,4.96,5.78,1.97,1.00,4.00,,,
2020-11-10 16:00,13.1,,,2995,1022.30,215.20,6.27,7.19,3.55,1.00,5.38,,,
2020-11-10 17:00,13.1,,,2995,1021.80,216.80,6.42,7.21,2.31,1.00,4.29,,,
2020-11-10 18:00,12.4,,, 602,1021.32,238.30,8.79,10.18,3.30,1.00,6.91,,,
2020-11-10 19:00,12.7,,, 555,1021.07,237.40,8.39,9.39,2.63,1.00,5.97,,,
2020-11-10 20:00,12.8,,, 457,1021.07,231.90,7.48,8.18,2.30,1.00,5.35,,,
2020-11-10 21:00,13.3,,,2995,1020.83,216.30,8.28,9.76,2.92,1.00,6.46,,,
2020-11-10 22:00,13.3,,,2995,1020.70,219.00,8.26,9.44,3.13,1.00,6.53,,,
2020-11-10 23:00,13.6,,,2995,1020.58,220.60,9.55,10.60,2.89,1.00,7.22,,,
2020-11-11 00:00,13.5,,,2995,1020.58,227.70,9.23,10.75,4.97,1.00,7.74,,,
2020-11-11 01:00,13.6,,,2995,1020.83,232.00,9.43,10.84,4.92,1.00,7.95,,,
2020-11-11 02:00,13.9,,,2995,1020.70,228.30,9.54,11.31,5.30,1.00,8.18,,,
2020-11-11 03:00,14.0,,,2995,1020.83,231.90,9.72,10.75,5.04,1.00,8.06,,,
2020-11-11 04:00,13.9,,,2995,1020.83,228.00,8.61,10.07,4.63,1.00,7.33,,,
2020-11-11 05:00,13.9,,,2995,1020.83,233.30,8.16,9.16,2.40,1.00,5.30,,,
2020-11-11 06:00,13.8,,,2995,1020.58,230.40,8.85,10.21,3.00,1.00,6.69,,,
2020-11-11 07:00,13.6,,,2995,1020.21,229.50,9.00,10.43,3.37,1.00,6.73,,,
2020-11-11 08:00,13.6,,,2995,1020.46,235.40,8.85,9.94,4.20,1.00,7.26,,,
2020-11-11 09:00,13.6,,,2995,1020.58,229.90,8.60,9.59,3.78,1.00,7.14,,,
2020-11-11 10:00,13.7,,,2995,1020.58,226.10,8.61,9.58,3.09,1.00,6.66,,,
2020-11-11 11:00,13.8,,,2995,1020.83,218.10,7.54,8.54,2.75,1.00,6.02,,,
2020-11-11 12:00,14.1,,,2979,1021.19,218.70,8.84,10.00,2.55,1.00,6.18,,,
2020-11-11 13:00,14.2,,,2995,1021.19,208.30,7.82,9.33,4.30,1.00,6.54,,,
2020-11-11 14:00,14.1,,,2995,1020.95,206.60,8.72,10.68,4.35,1.00,7.19,,,
2020-11-11 15:00,14.1,,,2995,1021.07,213.60,8.45,9.83,4.19,1.00,7.07,,,
2020-11-11 16:00,14.2,,,2995,1020.46,214.60,8.35,9.53,4.65,1.00,7.15,,,
2020-11-11 17:00,14.3,,,2995,1019.72,206.10,8.04,9.10,3.87,1.00,6.69,,,
2020-11-11 18:00,14.1,,,2995,1019.23,198.40,7.75,9.26,4.17,1.00,6.44,,,
2020-11-11 19:00,14.1,,,2995,1019.11,199.50,8.13,9.16,2.65,1.00,6.44,,,
2020-11-11 20:00,14.4,,,2995,1019.11,205.90,9.66,10.64,4.27,1.00,7.93,,,
2020-11-11 21:00,14.4,,,2995,1018.62,208.70,10.33,11.69,5.29,1.00,8.53,,,
2020-11-11 22:00,14.7,,,2995,1018.25,207.90,11.18,12.13,4.01,1.00,8.65,,,
2020-11-11 23:00,15.0,,,2995,1017.76,207.10,11.38,13.04,6.35,1.00,9.79,,,
2020-11-12 00:00,15.1,,,2995,1017.64,210.60,11.57,12.78,4.25,1.00,8.00,,,
2020-11-12 01:00,14.9,,,2995,1017.40,210.70,10.71,12.09,3.59,1.00,7.59,,,
2020-11-12 02:00,14.8,,,2995,1017.15,210.50,10.85,12.43,3.87,1.00,7.69,,,
2020-11-12 03:00,14.5,,,2995,1016.91,212.00,9.72,10.81,5.68,1.00,8.47,,,
2020-11-12 04:00,14.1,,,2995,1016.54,208.80,9.16,10.31,5.21,1.00,7.98,,,
2020-11-12 05:00,14.3,,,2995,1015.93,206.60,10.65,12.06,5.36,1.00,8.84,,,
2020-11-12 06:00,14.6,,,2995,1015.20,206.00,10.74,11.71,5.41,1.00,8.75,,,
2020-11-12 07:00,14.4,,,2995,1014.71,208.20,10.24,11.84,3.12,1.00,8.21,,,
2020-11-12 08:00,14.6,,,2995,1014.46,213.40,9.87,11.11,2.89,1.00,7.24,,,
2020-11-12 09:00,14.3,,,2939,1014.59,213.20,8.16,9.26,2.75,1.00,6.25,,,
2020-11-12 10:00,14.8,,,2995,1014.10,206.10,11.39,12.44,4.39,1.00,9.03,,,
2020-11-12 11:00,15.0,,,2995,1014.34,212.70,11.41,12.95,4.59,1.00,9.41,,,
2020-11-12 12:00,15.0,,,2995,1014.46,209.90,9.64,11.22,3.53,1.00,8.02,,,
2020-11-12 13:00,14.9,,,2995,1014.10,198.90,9.81,11.17,3.14,1.00,6.91,,,
2020-11-12 14:00,15.1,,, 755,1013.97,212.80,11.82,13.91,3.73,1.00,8.02,,,
2020-11-12 15:00,14.9,,,2387,1013.85,217.50,13.29,13.63,6.33,1.00,10.31,,,
2020-11-12 16:00,14.6,,,2995,1013.49,214.90,9.16,10.59,4.59,1.00,7.87,,,
2020-11-12 17:00,14.3,,,2995,1012.63,206.20,7.97,9.02,3.76,1.00,6.36,,,
2020-11-12 18:00,14.2,,,2995,1012.39,218.30,7.65,9.12,4.31,1.00,6.74,,,
2020-11-12 19:00,14.2,,,2995,1012.26,233.00,7.66,8.97,3.78,1.00,6.32,,,
2020-11-12 20:00,14.1,,,2995,1012.51,230.70,6.48,7.64,2.40,1.00,5.09,,,
2020-11-12 21:00,13.9,,,2995,1012.51,196.10,5.21,6.83,2.11,1.00,4.39,,,
2020-11-12 22:00,13.7,,,2992,1012.39,168.60,4.70,6.23,1.85,1.00,3.79,,,
2020-11-12 23:00,13.8,,,1624,1011.41,346.06,1.81,2.94,0.05,1.00,1.06,,,
2020-11-13 00:00,12.4,,,2182,1011.90,347.36,7.50,9.65,3.00,1.00,5.83,,,
2020-11-13 01:00,11.6,,,2995,1013.00,352.90,15.61,18.06,5.57,1.00,11.42,,,
2020-11-13 02:00,11.8,,,2995,1013.85,5.17,12.44,14.35,4.18,1.00,9.54,,,
2020-11-13 03:00,11.3,,,2995,1014.46,2.21,13.40,15.23,6.76,1.00,11.10,,,
2020-11-13 04:00,11.4,,,2995,1015.56,15.77,11.26,12.48,4.41,1.00,8.68,,,
2020-11-13 05:00,11.4,,,2995,1016.42,19.28,10.65,12.39,3.06,1.00,8.59,,,
2020-11-13 06:00,11.7,,,2995,1016.66,30.89,9.27,11.00,4.26,1.00,7.84,,,
2020-11-13 07:00,11.6,,,2995,1016.91,8.53,11.71,12.43,5.06,1.00,9.16,,,
2020-11-13 08:00,11.1,,,2995,1017.40,31.75,11.12,12.64,3.68,1.00,8.72,,,
2020-11-13 09:00,11.1,,,2995,1017.52,41.40,10.35,11.83,4.86,1.00,8.60,,,
2020-11-13 10:00,11.1,,,2995,1018.01,51.84,9.51,10.89,4.13,1.00,7.72,,,
2020-11-13 11:00,10.9,,,2995,1017.89,56.10,10.09,11.34,5.06,1.00,8.44,,,
2020-11-13 12:00,10.7,,,2995,1017.52,53.77,11.52,12.77,5.51,1.00,9.52,,,
2020-11-13 13:00,11.2,,,2995,1017.03,72.00,11.74,12.96,5.98,1.00,9.62,,,
2020-11-13 14:00,11.2,,,2995,1017.03,72.00,11.74,12.96,5.98,1.00,9.62,,,
2020-11-13 15:00,11.5,,,2995,1015.81,85.60,10.79,12.50,3.84,1.00,8.10,,,
2020-11-13 16:00,11.2,,,2995,1014.59,77.90,11.10,11.93,3.45,1.00,7.69,,,
2020-11-13 17:00,11.2,,,2995,1013.36,71.50,10.71,12.28,3.43,1.00,7.59,,,
2020-11-13 18:00,11.1,,,2995,1012.51,58.91,11.59,12.79,3.87,1.00,8.38,,,
2020-11-13 19:00,11.1,,,2995,1010.31,59.63,14.42,15.08,4.18,1.00,10.38,,,
2020-11-13 20:00,11.1,,,2995,1010.07,54.40,13.67,14.68,4.38,1.00,9.81,,,
2020-11-13 21:00,11.2,,,2983,1009.82,60.83,12.29,13.57,5.98,1.00,9.93,,,
2020-11-13 22:00,11.4,,,2995,1009.09,59.50,11.93,12.73,5.42,1.00,9.56,,,
2020-11-13 23:00,11.5,,,2995,1007.99,52.05,10.77,12.31,4.25,1.00,8.44,,,
2020-11-14 00:00,11.7,,,2995,1007.75,56.20,9.38,10.61,4.13,1.00,7.44,,,
2020-11-14 01:00,11.6,,,2995,1007.63,63.60,7.07,8.68,2.27,1.00,5.38,,,
2020-11-14 02:00,11.4,,,2995,1007.14,30.19,5.04,6.32,1.06,1.00,3.56,,,
2020-11-14 03:00,11.1,,,2995,1006.89,17.82,4.95,6.24,0.72,1.00,3.54,,,
2020-11-14 04:00,11.2,,,2995,1007.14,349.10,4.96,6.51,0.35,1.00,3.55,,,
2020-11-14 05:00,11.2,,,2995,1006.77,326.90,6.71,7.69,2.57,1.00,5.22,,,
2020-11-14 06:00,11.0,,,2995,1006.89,328.30,9.01,10.70,4.21,1.00,7.04,,,
2020-11-14 07:00,10.7,,,2995,1007.38,337.60,8.48,10.55,3.23,1.00,6.42,,,
2020-11-14 08:00,10.7,,,2995,1007.87,327.10,6.93,8.21,2.51,1.00,5.42,,,
2020-11-14 09:00,10.7,,,2995,1008.36,320.80,8.26,10.08,2.72,1.00,6.19,,,
2020-11-14 10:00,10.9,,,2995,1009.09,318.50,10.18,11.88,3.52,1.00,7.38,,,
2020-11-14 11:00,11.0,,,2995,1009.58,320.60,7.94,9.18,2.36,1.00,5.51,,,
2020-11-14 12:00,10.6,,,2778,1010.43,314.10,9.72,10.90,2.80,1.00,6.56,,,
2020-11-14 13:00,10.0,,,2995,1011.04,320.20,11.33,12.73,4.19,1.00,8.05,,,
2020-11-14 14:00,10.3,,,2995,1011.65,308.50,12.40,13.69,3.67,1.00,8.41,,,
2020-11-14 15:00,10.0,,,2808,1012.14,302.60,12.97,13.81,4.47,1.00,9.88,,,
2020-11-14 16:00,9.2,,,2995,1012.75,303.30,15.31,15.87,7.36,1.00,12.00,,,
2020-11-14 17:00,9.4,,,2995,1012.63,302.00,14.21,16.27,5.56,1.00,10.65,,,
2020-11-14 18:00,9.2,,,2983,1013.00,296.20,13.46,15.21,5.93,1.00,10.90,,,
2020-11-14 19:00,9.3,,,2995,1013.61,305.40,14.25,16.22,6.61,1.00,11.48,,,
2020-11-14 20:00,9.1,,,2995,1014.46,306.30,14.08,15.96,7.86,1.00,11.73,,,
2020-11-14 21:00,9.5,,,2995,1015.20,311.10,14.41,15.75,6.00,1.00,10.94,,,
2020-11-14 22:00,9.8,,,2995,1015.81,310.40,14.76,15.82,4.52,1.00,10.14,,,
2020-11-14 23:00,10.0,,,2995,1016.66,316.40,13.21,14.99,4.57,1.00,10.03,,,
2020-11-15 00:00,9.9,,,2995,1017.40,309.30,11.59,12.43,4.16,1.00,8.05,,,
2020-11-15 01:00,9.7,,,2995,1018.13,326.50,11.04,12.17,3.12,1.00,7.80,,,
2020-11-15 02:00,9.9,,,2995,1018.62,324.70,10.01,10.85,3.08,1.00,6.88,,,
2020-11-15 03:00,9.8,,,2995,1018.99,328.20,8.93,9.83,2.57,1.00,6.17,,,
2020-11-15 04:00,8.8,,,2995,1019.48,345.90,13.33,14.83,4.39,1.00,10.23,,,
2020-11-15 05:00,8.9,,,2995,1020.09,348.96,10.25,11.31,3.83,1.00,8.22,,,
2020-11-15 06:00,,,,,,,,,,,,,,
2020-11-15 07:00,9.5,,,2995,1020.58,339.80,11.28,12.06,4.42,1.00,8.94,,,
2020-11-15 08:00,9.3,,,2995,1021.07,329.50,9.41,10.45,2.65,1.00,7.23,,,
2020-11-15 09:00,8.9,,,2995,1021.68,330.20,10.10,11.76,4.14,1.00,7.95,,,
2020-11-15 10:00,8.7,,,2995,1022.30,329.40,8.99,10.54,3.70,1.00,6.88,,,
2020-11-15 11:00,8.6,,,2995,1022.91,330.70,8.88,9.75,2.55,1.00,6.47,,,
2020-11-15 12:00,8.4,,,2995,1023.64,323.10,7.29,8.13,1.64,1.00,5.23,,,
2020-11-15 13:00,8.3,,,2995,1023.89,328.00,6.42,7.76,1.45,1.00,4.34,,,
2020-11-15 14:00,8.3,,,2995,1024.38,317.30,8.01,8.84,2.46,1.00,5.56,,,
2020-11-15 15:00,8.3,,,2995,1024.87,303.90,8.87,9.63,2.14,1.00,6.09,,,
2020-11-15 16:00,8.0,,,2995,1024.50,294.30,6.13,7.58,0.71,1.00,4.40,,,
2020-11-15 17:00,7.8,,,2995,1023.89,319.70,5.96,7.21,1.95,1.00,4.77,,,
2020-11-15 18:00,7.7,,,2995,1024.01,317.20,4.60,5.32,0.08,1.00,3.08,,,
2020-11-15 19:00,7.9,,,2995,1023.77,325.30,3.69,5.02,0.09,1.00,2.24,,,
2020-11-15 20:00,8.6,,,2995,1023.28,11.89,1.64,2.54,0.02,1.00,0.98,,,
2020-11-15 21:00,7.6,,,2995,1023.28,188.00,2.61,3.56,0.06,1.00,1.26,,,
2020-11-15 22:00,7.9,,,2995,1023.52,145.80,3.25,3.84,0.57,1.00,2.14,,,
2020-11-15 23:00,8.2,,,2995,1023.15,130.10,7.00,8.05,2.48,1.00,4.82,,,
2020-11-16 00:00,8.4,,,2995,1022.42,143.80,6.41,7.53,3.32,1.00,5.29,,,
2020-11-16 01:00,9.1,,,2995,1021.68,154.10,9.17,10.30,4.32,1.00,7.64,,,
2020-11-16 02:00,9.8,,,2995,1019.85,149.10,11.26,12.81,6.07,1.00,9.31,,,
2020-11-16 03:00,10.4,,,2995,1018.62,155.80,11.85,14.12,6.33,1.00,10.02,,,
2020-11-16 04:00,10.9,,,2995,1017.40,158.20,12.72,14.25,7.21,1.00,10.73,,,
2020-11-16 05:00,11.6,,,2995,1015.93,155.40,15.23,16.26,7.68,1.00,11.87,,,
2020-11-16 07:00,13.6,,,2995,1011.78,158.50,15.19,16.75,7.02,1.00,12.49,,,
2020-11-16 08:00,14.3,,,2995,1009.94,165.60,17.64,19.12,9.25,1.00,13.84,,,
2020-11-16 09:00,14.4,,,2995,1008.48,169.60,17.16,18.53,7.97,1.00,13.11,,,
2020-11-16 10:00,14.7,,,2995,1006.89,171.50,17.68,18.59,5.64,1.00,13.05,,,
2020-11-16 12:00,11.0,,,2995,1008.24,284.50,10.64,12.92,3.18,1.00,8.03,,,
2020-11-16 13:00,10.8,,,2995,1008.85,270.10,10.09,11.44,2.89,1.00,6.95,,,
2020-11-16 14:00,10.7,,,2995,1007.38,237.90,6.54,8.20,1.28,1.00,4.46,,,
2020-11-16 15:00,10.5,,,2995,1008.11,268.40,9.00,10.36,2.72,1.00,6.48,,,
2020-11-16 16:00,11.8,,,2974,1007.63,242.30,8.48,9.51,3.06,1.00,5.96,,,
2020-11-16 17:00,12.4,,,2915,1007.02,252.90,13.66,15.19,4.08,1.00,9.65,,,
2020-11-16 18:00,12.4,,,2995,1007.50,269.40,11.92,12.67,5.62,1.00,9.19,,,
2020-11-16 19:00,11.6,,,2995,1007.87,278.60,14.36,16.29,6.37,1.00,11.39,,,
2020-11-16 20:00,11.4,,,2995,1008.60,272.20,14.07,15.39,6.58,1.00,11.03,,,
2020-11-16 21:00,11.2,,,2995,1009.09,273.40,12.30,13.46,5.82,1.00,9.75,,,
2020-11-16 23:00,11.0,,,2995,1010.31,271.60,12.65,14.85,3.69,1.00,9.03,,,
2020-11-17 00:00,11.1,,,2995,1010.07,270.20,11.55,13.37,3.76,1.00,8.40,,,
2020-11-17 01:00,11.2,,,2995,1010.68,282.30,13.55,15.63,4.97,1.00,9.45,,,
2020-11-17 02:00,11.1,,,2995,1010.92,285.10,14.94,16.93,4.91,1.00,10.64,,,
2020-11-17 03:00,11.2,,,2995,1011.16,276.70,11.70,14.49,3.73,1.00,8.39,,,
2020-11-17 04:00,10.5,,,2995,1011.16,277.20,10.68,12.27,3.15,1.00,8.18,,,
2020-11-17 05:00,10.9,,,2995,1010.92,273.50,9.20,10.64,2.74,1.00,7.12,,,
2020-11-17 06:00,10.6,,,2995,1010.92,287.50,12.76,14.12,4.22,1.00,9.22,,,
2020-11-17 07:00,9.2,,,2995,1010.80,291.10,11.32,13.04,5.31,1.00,9.34,,,
2020-11-17 08:00,10.0,,,2995,1010.55,277.80,11.92,14.16,4.62,1.00,9.76,,,
2020-11-17 09:00,9.8,,,2995,1010.31,278.00,12.97,14.90,6.14,1.00,10.40,,,
2020-11-17 10:00,9.8,,,2995,1010.43,278.00,13.66,15.58,6.18,1.00,10.45,,,
2020-11-17 11:00,,,,,,,,,,,,,,
2020-11-17 12:00,9.6,,,2934,1010.55,269.30,10.73,12.00,3.28,1.00,7.58,,,
2020-11-17 13:00,9.1,,,2995,1010.80,267.60,10.47,11.70,2.33,1.00,7.00,,,
2020-11-17 14:00,9.5,,,2961,1010.31,274.60,10.46,12.19,2.64,1.00,7.47,,,
2020-11-17 15:00,9.3,,,2995,1009.82,275.20,11.33,12.58,3.62,1.00,7.51,,,
2020-11-17 16:00,9.3,,,2995,1009.33,264.50,10.59,12.07,3.39,1.00,7.73,,,
2020-11-17 17:00,9.1,,,2990,1008.85,274.80,13.30,14.50,3.70,1.00,8.25,,,
2020-11-17 18:00,9.2,,,2995,1008.97,272.60,11.82,13.44,3.70,1.00,8.25,,,
2020-11-17 19:00,9.0,,,2995,1008.97,274.90,10.81,12.36,3.82,1.00,8.46,,,
2020-11-17 20:00,8.5,,,2974,1009.33,272.60,8.15,9.03,3.19,1.00,6.22,,,
2020-11-17 21:00,8.6,,,2995,1009.46,289.50,9.60,11.15,4.14,1.00,7.53,,,
2020-11-17 22:00,8.5,,,2995,1009.82,288.80,10.53,11.42,4.89,1.00,8.15,,,
2020-11-17 23:00,8.4,,,2995,1010.31,301.00,10.14,11.32,3.90,1.00,8.05,,,
2020-11-18 00:00,7.8,,,2995,1010.80,335.60,9.53,10.49,2.96,1.00,6.60,,,
2020-11-18 01:00,7.7,,,2995,1010.80,326.70,7.96,9.36,2.30,1.00,5.46,,,
2020-11-18 02:00,6.4,,,2995,1011.53,324.30,12.33,12.88,5.52,1.00,9.32,,,
2020-11-18 03:00,7.4,,,2995,1011.04,339.40,8.82,9.33,2.19,1.00,5.13,,,
2020-11-18 04:00,7.2,,,2995,1011.41,319.00,8.85,9.52,2.09,1.00,5.64,,,
2020-11-18 05:00,6.4,,,2995,1011.41,10.65,10.27,11.84,3.67,1.00,7.62,,,
2020-11-18 06:00,6.3,,,2995,1011.90,14.96,7.80,9.18,3.28,1.00,6.26,,,
2020-11-18 07:00,6.4,,,2995,1013.00,337.30,11.75,12.94,3.13,1.00,7.44,,,
2020-11-18 08:00,6.2,,,2995,1013.73,350.06,12.27,13.98,5.60,1.00,9.70,,,
2020-11-18 09:00,6.3,,,2995,1014.22,341.10,12.48,13.90,3.68,1.00,9.48,,,
2020-11-18 10:00,6.1,,,2995,1015.07,321.70,11.31,12.89,5.99,1.00,9.35,,,
2020-11-18 11:00,5.9,,,2995,1016.05,328.80,11.81,14.37,5.42,1.00,9.18,,,
2020-11-18 12:00,5.4,,,2995,1017.28,340.80,11.74,13.28,4.09,1.00,8.43,,,
2020-11-18 13:00,5.2,,,2995,1018.01,338.10,12.35,13.76,4.90,1.00,9.58,,,
2020-11-18 14:00,4.1,,,2930,1018.87,321.90,11.38,12.32,2.38,1.00,7.78,,,
2020-11-18 15:00,4.5,,,2995,1019.23,319.40,10.57,12.93,3.30,1.00,7.21,,,
2020-11-18 16:00,4.2,,,2995,1019.23,321.70,10.50,14.06,3.45,1.00,7.36,,,
2020-11-18 17:00,4.3,,,2995,1019.23,328.40,15.34,15.75,4.65,1.00,10.38,,,
2020-11-18 18:00,3.5,,,2969,1020.09,323.20,11.54,13.52,4.29,1.00,8.46,,,
2020-11-18 19:00,4.1,,,2995,1020.70,338.60,13.88,15.05,6.96,1.00,11.32,,,
2020-11-18 21:00,2.7,,,2995,1022.91,324.60,13.95,15.38,6.32,1.00,11.04,,,
2020-11-18 22:00,2.5,,,2995,1024.38,318.20,13.20,14.59,5.76,1.00,9.69,,,
2020-11-18 23:00,3.0,,,2995,1024.99,320.70,13.14,14.12,5.95,1.00,9.93,,,
2020-11-19 00:00,3.3,,,2995,1025.73,317.70,13.53,14.95,6.63,1.00,10.94,,,
2020-11-19 01:00,3.5,,,2995,1026.83,315.20,14.34,15.53,7.00,1.00,11.26,,,
2020-11-19 02:00,3.3,,,2995,1027.57,316.20,12.23,14.39,3.78,1.00,8.09,,,
2020-11-19 03:00,3.3,,,2995,1028.06,331.30,13.15,14.29,3.18,1.00,9.47,,,
2020-11-19 04:00,3.0,,,2995,1028.55,328.00,11.09,12.66,4.02,1.00,7.91,,,
2020-11-19 05:00,3.1,,,2995,1029.41,328.20,10.91,13.17,2.20,1.00,7.58,,,
2020-11-19 06:00,2.8,,,2995,1029.90,313.40,10.41,11.56,3.10,1.00,6.61,,,
2020-11-19 07:00,3.0,,,2995,1030.64,321.50,11.02,12.33,3.84,1.00,7.91,,,
2020-11-19 08:00,2.9,,,2995,1031.25,315.60,13.36,14.72,5.39,1.00,9.66,,,
2020-11-19 09:00,2.5,,,2995,1032.11,325.10,10.40,11.55,4.60,1.00,8.57,,,
2020-11-19 10:00,3.0,,,2995,1033.22,324.70,11.35,12.16,3.27,1.00,8.23,,,
2020-11-19 11:00,2.6,,,2995,1034.20,316.80,9.97,11.10,1.82,1.00,6.15,,,
2020-11-19 12:00,2.7,,,2995,1034.57,311.30,7.93,8.60,2.32,1.00,5.47,,,
2020-11-19 13:00,2.8,,,2995,1035.56,270.80,6.58,7.89,1.38,1.00,4.48,,,
2020-11-19 14:00,3.1,,,2995,1035.68,273.00,6.58,8.15,1.42,1.00,4.25,,,
2020-11-19 15:00,3.5,,,2995,1035.93,268.10,7.46,8.36,1.37,1.00,4.89,,,
2020-11-19 16:00,3.8,,,2995,1035.31,256.70,7.24,8.19,1.11,1.00,4.46,,,
2020-11-19 17:00,4.1,,,2995,1034.82,254.00,8.17,9.22,1.83,1.00,5.18,,,
2020-11-19 18:00,4.9,,,2995,1034.33,244.80,8.76,10.06,3.03,1.00,6.94,,,
2020-11-19 19:00,5.4,,,2995,1033.96,241.40,11.09,11.76,3.53,1.00,7.42,,,
2020-11-19 20:00,6.4,,,2995,1033.71,238.60,10.44,11.93,5.40,1.00,8.27,,,
2020-11-19 21:00,7.1,,,2995,1033.10,235.20,9.24,11.45,2.86,1.00,6.79,,,
2020-11-19 22:00,7.1,,,2942,1032.85,230.70,10.59,12.61,5.49,1.00,8.81,,,
2020-11-19 23:00,7.3,,,2995,1031.99,225.40,12.06,13.09,6.53,1.00,9.88,,,
2020-11-20 00:00,7.9,,,2995,1031.87,222.80,13.76,14.98,7.09,1.00,10.98,,,
2020-11-20 01:00,8.6,,,2995,1031.38,218.60,14.04,15.16,5.40,1.00,10.82,,,
2020-11-20 02:00,9.6,,,2995,1030.64,223.00,11.92,15.01,3.66,1.00,8.75,,,
2020-11-20 03:00,10.0,,,2995,1030.64,214.20,14.23,15.69,3.94,1.00,10.54,,,
2020-11-20 04:00,10.6,,,2995,1030.02,218.20,14.45,15.37,5.15,1.00,10.35,,,
2020-11-20 05:00,11.1,,,2995,1029.53,227.30,14.18,15.34,4.89,1.00,11.00,,,
2020-11-20 06:00,11.4,,,2995,1029.29,227.30,13.89,15.17,3.74,1.00,10.78,,,
2020-11-20 07:00,11.8,,,2995,1028.80,226.80,14.51,16.03,5.51,1.00,10.77,,,
2020-11-20 08:00,12.0,,,2995,1028.30,229.20,12.75,14.68,4.28,1.00,8.93,,,
2020-11-20 09:00,11.9,,,2862,1027.81,224.40,12.96,14.03,6.52,1.00,10.48,,,
2020-11-20 10:00,12.3,,,2995,1027.32,221.90,12.69,13.87,3.88,1.00,10.02,,,
2020-11-20 11:00,12.5,,,2995,1027.08,222.70,13.76,17.02,5.50,1.00,11.20,,,
2020-11-20 12:00,12.4,,,2778,1027.45,227.60,13.45,14.73,4.39,1.00,10.23,,,
2020-11-20 13:00,12.6,,,2995,1027.32,228.70,13.98,15.07,4.11,1.00,10.44,,,
2020-11-20 14:00,,,,,,,,,,,,,,
2020-11-20 15:00,12.7,,,2995,1026.59,225.90,11.70,13.57,3.64,1.00,8.83,,,
2020-11-20 16:00,12.9,,,2987,1026.22,226.80,13.60,14.62,4.84,1.00,10.34,,,
2020-11-20 17:00,12.9,,,2995,1025.73,227.60,14.04,15.60,6.12,1.00,11.08,,,
2020-11-20 18:00,13.0,,,2966,1025.60,230.40,12.80,15.09,5.76,1.00,10.39,,,
2020-11-20 19:00,13.0,,,2985,1025.11,227.50,12.27,13.80,6.12,1.00,9.82,,,
2020-11-20 20:00,13.2,,,2995,1024.62,221.20,13.60,15.13,4.87,1.00,11.38,,,
2020-11-20 21:00,13.2,,,2995,1024.50,222.90,13.46,15.24,4.44,1.00,9.69,,,
2020-11-20 22:00,13.4,,,2995,1024.50,228.90,13.28,15.48,6.25,1.00,10.61,,,
2020-11-20 23:00,13.4,,,2995,1024.75,234.10,11.56,13.17,5.34,1.00,9.33,,,
2020-11-21 00:00,13.3,,,2995,1024.62,225.70,12.09,13.87,6.09,1.00,9.82,,,
2020-11-21 01:00,13.2,,,2995,1024.26,223.30,12.04,13.56,6.41,1.00,10.01,,,
2020-11-21 02:00,13.1,,,2995,1023.52,219.00,13.20,14.52,5.55,1.00,10.53,,,
2020-11-21 03:00,13.1,,,2995,1023.03,214.80,13.06,14.46,5.11,1.00,9.81,,,
2020-11-21 04:00,13.3,,,2995,1022.91,226.80,13.67,14.58,4.76,1.00,9.60,,,
2020-11-21 05:00,13.3,,,2995,1022.30,228.00,13.78,15.72,4.41,1.00,10.18,,,
2020-11-21 06:00,13.1,,,2995,1021.93,229.20,11.94,14.04,4.45,1.00,9.65,,,
2020-11-21 07:00,13.1,,,2995,1021.80,230.40,12.39,13.74,4.69,1.00,9.28,,,
2020-11-21 08:00,13.1,,,2995,1021.80,235.20,12.35,13.25,3.76,1.00,8.80,,,
2020-11-21 09:00,13.1,,,2995,1022.05,237.80,11.54,12.68,4.25,1.00,9.17,,,
2020-11-21 10:00,13.1,,,2995,1022.05,236.10,11.75,12.59,4.08,1.00,9.06,,,
2020-11-21 11:00,12.9,,,2995,1022.30,238.80,10.78,12.62,4.36,1.00,8.84,,,
2020-11-21 12:00,12.9,,,2978,1022.66,248.50,10.45,11.52,3.50,1.00,7.79,,,
2020-11-21 13:00,12.9,,,2995,1022.79,247.30,10.75,12.22,5.54,1.00,8.97,,,